Вернуться в каталог

COSMOS 2251 DEB

АктивенLEO
NORAD 33757·DEBRIS·🇷🇺 Russia

Запущен Jun 16, 1993 с Plesetsk Cosmodrome

Loading…

Ближайшие Пролёты (ближайшие 24 часа)

TLE

СвежийSource: Space-Track

Эпоха: Sep 14, 2026, 05:57 UTC

1 33757U 93036E   26257.24809866  .00000054  00000-0  29270-4 0  9994
2 33757  74.0376 180.6369 0013955 134.7194  17.4274 14.32637480919416

Отслеживайте COSMOS 2251 DEB в реальном времени с AllMySat

Download on the App Store